Regional Weather Roundup
Issued by NWS Pendleton, OR

Home | Current Version | Previous Version | Text Only | Print | Product List | Glossary On
Versions: 1 2 3 4 5 6 7 8 9 10 11 12 13 14 15 16 17 18 19 20 21 22 23 24 25 26 27 28 29 30 31 32 33 34 35 36 37 38 39 40 41 42 43 44 45 46 47 48 49 50
527
ASUS46 KPDT 091125
RWRPDT
PENDLETON REGIONAL WEATHER ROUNDUP
NATIONAL WEATHER SERVICE PENDLETON OREGON
300 AM PST TUE FEB 9 2016

NOTE: FAIR INDICATES FEW OR NO CLOUDS BELOW 12,000 FEET WITH NO
SIGNIFICANT WEATHER AND/OR OBSTRUCTIONS TO VISIBILITY.

# INDICATES UNOFFICIAL STATION AND DATA

WAZ520-091210-
EAST SLOPES OF WASHINGTON CASCADES

CITY            SKY/WX      TMP DP  RH  WIND    PRES   REMARKS
#CLE ELUM HS    N/A         26  23  88  CALM    30.41F
#CLE ELUM 2NW   N/A         23  23  100 CALM    N/A
#CLE ELUM LAKE  N/A         33  31  92  CALM    30.51F
#CLIFFDEL 2NW   N/A         28  27  96  CALM    N/A
#GLENWOOD       N/A         25  24  96  CALM    30.53F
#MANASTASH CYN  N/A         28  24  85  CALM    30.40F
#NELSON 3SW     N/A         29  28  96  CALM    30.75F
#NILE           N/A         26  25  96  CALM    29.81F
#RONALD 2NW     N/A         31  N/A N/A CALM    30.28F
#SNOWDEN        N/A         30  21  69  CALM    N/A
#TEANAWAY 4NE   N/A         26  25  96  CALM    N/A
#TROUT LAKE 1NE N/A         27  26  96  CALM    30.52F
#TROUT LAKE 1E  N/A         26  25  96  CALM    30.41F
$$

WAZ521-091210-
SIMCOE HIGHLANDS

CITY            SKY/WX      TMP DP  RH  WIND    PRES   REMARKS
#BICKLETON HS   N/A         35  27  72  CALM    N/A
#CENTERVILLE 1SWN/A         28  26  92  CALM    30.48F
#GOLDENDALE     N/A         29  27  92  CALM    N/A
#GOLDENDALE 1NE N/A         30  26  85  N3      N/A
#GOODNOE HILLS  N/A         37  31  79  NE3     30.35F
#LYLE 6NE       N/A         37  33  85  CALM    30.47F
$$

WAZ026-091210-
KITTITAS VALLEY

CITY            SKY/WX      TMP DP  RH  WIND    PRES   REMARKS
ELLENSBURG AP   FRZFOG      24  20  84  CALM    30.49F VSB 1/4
#ELLENSBURG CWU N/A         23  21  92  CALM    30.52F
#ELLENSBURG 3NE N/A         24  23  96  CALM    30.47F
#ELLENSBURG     N/A         23  23  100 CALM    N/A
#KITTITAS 4N    N/A         24  21  88  CALM    30.50F
#KITTITAS 3S    N/A         14  12  92  CALM    30.60F
#THORP 6N       N/A         32  30  92  CALM    30.56F
$$

WAZ027-091210-
YAKIMA VALLEY

CITY            SKY/WX      TMP DP  RH  WIND    PRES   REMARKS
YAKIMA AIRPORT  CLEAR       30  26  85  W8      30.50F
YAKIMA-VAGABOND CLEAR       33  28  82  SE1     30.47F
#DONALD 2NE     N/A         36  23  59  CALM    29.32F
#GRANDVIEW      N/A         29  27  92  CALM    30.54F
#MABTON         N/A         31  30  96  CALM    30.50F
#MOXEE 2E       N/A         30  28  92  E2      30.48F
#NACHES 2SW     N/A         33  30  89  NW1     30.49S
#OUTLOOK DOT    N/A         N/A N/A N/A CALM    N/A
#SELAH 8E       N/A         31  29  92  E3      N/A
#TERRACE HTS    N/A         29  27  92  CALM    30.50F
#TOPPENISH      N/A         34  31  89  CALM    30.44F
#WEST VALLEY    N/A         30  27  88  CALM    30.52F
#W YAKIMA       N/A         34  30  85  W2      30.54F
#WHITE SWAN 5E  N/A         30  28  92  CALM    30.53F
#WILEY CITY 3W  N/A         32  26  78  CALM    30.45F
$$

WAZ028-091210-
LOWER COLUMBIA BASIN...WASHINGTON

CITY            SKY/WX      TMP DP  RH  WIND    PRES   REMARKS
HANFORD         CLEAR       37  30  75  NW10    30.50F
PASCO           CLEAR       27  25  92  N3      30.52F
PROSSER AWOS    N/A         27  27  100 CALM    30.53F
RICHLAND AWOS   CLEAR       30  30  100 CALM    30.52F
#BENTON CITY    N/A         31  29  92  CALM    30.43F
#CONNELL 5N     N/A         31  29  92  NW2     30.51F
#ELTOPIA 6NW    N/A         35  32  89  N7      29.44F
#KAHLOTUS       N/A         31  30  96  CALM    30.51F
#KENNEWICK 3S   N/A         35  31  85  CALM    30.52F
#PATERSON       N/A         32  30  92  CALM    30.50F
#PROSSER        N/A         36  31  82  CALM    30.52F
#SAGEMOOR 2W    N/A         33  30  89  CALM    30.37F
#TOUCHET 2S     N/A         25  23  92  CALM    30.51F
#WEST PASCO     N/A         30  26  85  CALM    30.55F
$$

WAZ029-091210-
FOOTHILLS OF THE BLUES...WASHINGTON

CITY            SKY/WX      TMP DP  RH  WIND    PRES   REMARKS
WALLA WALLA AP  CLEAR       34  31  89  S7      30.47F
#CLYDE 6NW      N/A         28  27  96  CALM    30.51F
#DAYTON SCHOOL  N/A         30  25  81  CALM    30.45F
#LOWDEN 2SE     N/A         27  26  96  CALM    30.47F
#PLEASANT VIEW 1N/A         35  33  92  SW1     30.53F
#PRESCOTT       N/A         31  30  96  CALM    30.51F
#WHITMAN COLLEGEN/A         35  32  89  W2      30.57F
#WAITSBURG 5S   N/A         34  32  92  CALM    30.60F
#WAITSBURG 8N   N/A         27  13  55  CALM    30.30F
#WALLA WALLA U  N/A         33  31  92  CALM    30.52F
#WHITMAN MISSIONN/A         30  28  92  CALM    30.54F
$$

WAZ030-091210-
BLUE MOUNTAINS...WASHINGTON

CITY            SKY/WX      TMP DP  RH  WIND    PRES   REMARKS
#DIXIE 5SE      N/A         44  36  73  CALM    30.34F
#SKI BLUEWOOD   N/A         33  31  92  SW2     30.44F
$$

ORZ009-041-WAZ024-091210-
COLUMBIA RIVER GORGE

CITY            SKY/WX      TMP DP  RH  WIND    PRES   REMARKS
HOOD RIVER AP   CLEAR       32  30  92  CALM    30.49F
THE DALLES AP   CLEAR       32  30  92  CALM    30.52S
#ARLINGTON AIRPON/A         36  34  92  CALM    30.52F
#ARLINGTON HS   N/A          0   0  100 CALM    30.43S
#LYLE           N/A         37  34  89  CALM    30.53F
#MARYHILL 2W    N/A         35  35  100 CALM    N/A
#MOSIER 1S      N/A         33  27  78  CALM    30.46F
#MURDOCK        N/A         34  33  96  E1      30.56F

$$

ORZ510-091210-
NORTH CENTRAL OREGON

CITY            SKY/WX      TMP DP  RH  WIND    PRES   REMARKS
#CHENOWITH 1W   N/A         35  33  92  E10     N/A
#COW CYN RST AREN/A         36  34  92  N3      N/A
#GRASS VALLEY 1SN/A         33  31  92  E5      30.51F
#MAUPIN SCHOOL  N/A         33  29  85  CALM    30.50F
#MORO SCHOOL    N/A         30  29  96  CALM    30.45F
#SHANIKO 4NW    N/A         36  35  96  E9      30.40F
#TYGH VALLEY 2NEN/A         31  28  88  N1      30.51F
#WAPANITIA AIRPON/A         30  28  92  CALM    30.53F
#WASCO 5NE      N/A         30  28  92  CALM    30.52F
$$

ORZ511-091210-
CENTRAL OREGON

CITY            SKY/WX      TMP DP  RH  WIND    PRES   REMARKS
BEND AIRPORT    CLEAR       32  30  92  SW5     30.40F
MADRAS AIRPORT  CLOUDY      28  28  100 CALM    30.44F FOG
PRINEVILLE AP   CLEAR       36  32  85  CALM    30.40F
REDMOND AIRPORT CLEAR       27  26  96  CALM    30.40F
#ASHWOOD SCHOOL N/A         28  27  96  CALM    30.35F
#BEND 6E        N/A         32  28  85  CALM    30.38S
#BEND 1SW       N/A         29  28  96  N1      N/A
#BEND-KIM LN    N/A         35  32  89  SW5     30.37F
#LAKE BILLY CHINN/A         34  N/A N/A CALM    30.50F
#MADRAS         N/A         31  31  100 CALM    N/A
#POWELL BUTTE 3EN/A         39  31  73  SE3     N/A
#PRINEVILLE 3N  N/A         28  26  92  CALM    30.43F
#WARM SPRINGS   N/A         31  29  92  CALM    30.41F

$$


ORZ509-091210-
EAST SLOPES OF OREGON CASCADES

CITY            SKY/WX      TMP DP  RH  WIND    PRES   REMARKS
SISTERS AWOS    N/A         27  25  92  CALM    30.34F
#BLACK BUTTE RNCN/A         29  28  96  CALM    30.46F
#CAMP SHERMAN   N/A         26  24  92  CALM    30.49F
#LA PINE 4NW    N/A         23  20  88  CALM    30.51F
#SISTERS AIRPOR N/A         25  25  100 CALM    30.17S
#SISTERS ODOT   N/A         26  N/A N/A CALM    N/A
#SISTERS 3N     N/A         25  19  78  CALM    30.38S
#SUNRIVER       N/A         27  25  92  CALM    30.49F
#SUTTLE LK DOT  N/A         25  25  100 SW21G29 N/A    WCI 10
#TUMALO 3W      N/A         39  35  85  N1      30.29F
#WANOGA BUTTE D N/A         44  22  41  CALM    N/A

$$

ORZ044-091210-
LOWER COLUMBIA BASIN...OREGON

CITY            SKY/WX      TMP DP  RH  WIND    PRES   REMARKS
HERMISTON       CLEAR       30  28  92  CALM    30.49F
#BOARDMAN SCHOOLN/A         27  25  92  SE1     30.52F
#BOARDMAN 8SW   N/A         33  31  92  CALM    30.51F
#ECHO 8SW       N/A         31  26  81  SW1     30.49F
#I-84 EX 198 DOTN/A         37  34  89  NE3     N/A
#IONE SCHOOL    N/A         29  18  63  CALM    30.44F
#IRRIGON 4NW    N/A         29  29  100 S1      N/A
#UMATILLA SCHOOLN/A         26  26  100 CALM    30.53F
#UMATILLA       N/A         33  29  85  CALM    30.46F
$$

ORZ507-091210-
NORTHERN FOOTHILLS OF THE BLUES

CITY            SKY/WX      TMP DP  RH  WIND    PRES   REMARKS
PENDLETON AIRPT CLEAR       31  29  92  E7      30.46F
#ADAMS 3WNW     N/A         29  27  92  CALM    30.52F
#ATHENA         N/A         28  27  96  CALM    30.54F
#CAYUSE         N/A         33  31  92  CALM    30.51F
#HELIX SCHOOL   N/A         31  29  92  CALM    30.51F
#HELIX 3N       N/A         34  31  89  N1      30.39F
#HOLDMAN 5SE    N/A         32  30  92  SE3     30.43F
#HOLDMAN 6E     N/A         32  29  89  SW1     30.31F
#M-F GROVE ELEM N/A         31  28  88  CALM    30.46F
#M-FREEWATER 5SEN/A         30  28  92  CALM    30.45F
#PENDLETON DNTN N/A         29  22  75  E1      30.52S
#PDT AQUATIC CTRN/A         29  21  72  CALM    30.46F
#PDT SUNRIDGE   N/A         27  26  96  CALM    30.49F
#PENDLETON 7NW  N/A         29  25  85  CALM    26.39F
#PILOT ROCK     N/A         30  23  75  CALM    30.44F
#TUTUILLA       N/A         28  26  92  CALM    30.51F
#UMAPINE 2E     N/A         30  28  92  CALM    30.46F
#WESTON SCHOOL  N/A         32  28  85  CALM    30.41F

$$

ORZ508-091210-
SOUTHERN FOOTHILLS OF THE BLUES

CITY            SKY/WX      TMP DP  RH  WIND    PRES   REMARKS
LEXINGTON       CLEAR       32  30  92  SE6     30.48F
#CONDON SCHOOL  N/A         34  32  92  N5      30.34F
#CONDON 5W      N/A         34  31  89  E10     30.38F
#FOSSIL SCHOOL  N/A         28  26  92  CALM    30.34F
#HEPPNER EOC    N/A         32  30  92  CALM    30.43F
#HEPPNER 4NE    N/A         35  32  89  E1      30.48F
#LEXINGTON 2SE  N/A         30  27  88  S3      30.41F
#MIKKALO        N/A         33  29  85  SE1     30.54F
#OLEX 4N        N/A         33  31  92  CALM    30.44F
#RUGGS 5NE      N/A         31  30  96  CALM    30.55F
#RUGGS 2SW      N/A         30  28  92  CALM    30.50F

$$

ORZ502-503-091210-
BLUE MOUNTAINS

CITY            SKY/WX      TMP DP  RH  WIND    PRES   REMARKS
MEACHAM         CLEAR       36  28  72  CALM    30.44F
#HEPPNER 15SE   N/A         36  28  72  N5      30.30S
#LONG CREEK HS  N/A         34  33  96  CALM    N/A
#PIKES PEAK     N/A         47  33  58  CALM    27.99S
#TOLLGATE       N/A         32  29  89  NE2     30.25F
#TROY SCHOOL    N/A         33  31  92  W2      30.46F
#UKIAH          N/A         24  23  96  CALM    30.49F
#WESTON 4E      N/A         42  31  65  E6      30.40F
$$

ORZ505-091210-
JOHN DAY BASIN

CITY            SKY/WX      TMP DP  RH  WIND    PRES   REMARKS
JOHN DAY        CLEAR       37  32  82  E10     30.46F
#DAYVILLE SCHOOLN/A         36  30  79  CALM    30.40
#MITCHELL       N/A         31  31  100 CALM    30.55F
#MITCHELL 8NW   N/A         39  35  85  CALM    30.60F
#MONUMENT HS    N/A         30  27  88  CALM    30.37F
#MT. VERNON 5SE N/A         48  30  49  E3      30.40F
#SPRAY SCHOOL   N/A         31  N/A N/A CALM    N/A
#WINLOCK        N/A         38  30  73  CALM    30.36F
$$

ORZ506-091210-
OCHOCO AND JOHN DAY HIGHLANDS

CITY            SKY/WX      TMP DP  RH  WIND    PRES   REMARKS
#BUCK CREEK DOT N/A         34  34  100 SE12    N/A    WCI 25
#HORSE RIDGE DO N/A         35  30  82  W2      N/A
#PAULINA SCHOOL N/A         55  36  49  CALM    30.38F
#PINE MTN OBS   N/A         42  29  60  SE18G25 N/A    WCI 34
#PRAIRIE CITY   N/A         27  23  85  CALM    30.45S
#SENECA         N/A         14  N/A N/A CALM    N/A
#SENECA 9NW     N/A         19  17  92  CALM    30.64F
$$

ORZ049-091210-
GRANDE RONDE VALLEY

CITY            SKY/WX      TMP DP  RH  WIND    PRES   REMARKS
LA GRANDE       CLEAR       34  27  75  S5      30.50F
#COVE           N/A         29  28  96  S2      30.51F
#COVE SCHOOL    N/A         29  27  92  CALM    30.49F
#COVE 6NW       N/A         33  30  89  SE7     30.41F
#ELGIN 3N       N/A         26  20  78  CALM    30.47F
#ELGIN 1E       N/A         28  24  85  CALM    N/A
#IMBLER SCHOOL  N/A         33  29  85  S8      30.45F
#ISLAND CITY 4N N/A         42  40  93  CALM    30.23F
#UNION 1S       N/A         35  32  89  SE15G25 30.52F WCI 25
$$

ORZ050-091210-
WALLOWA COUNTY

CITY            SKY/WX      TMP DP  RH  WIND    PRES   REMARKS
JOSEPH AIRPORT  CLEAR       27  27  100 CALM    30.50F
#ENTERPRISE AP  N/A         27  24  88  CALM    30.39F
#ENTERPRISE HS  N/A         23  21  92  CALM    30.47F
#IMNAHA SCHOOL  N/A         33  30  89  S2      30.48F
#JOSEPH 3N      N/A         23  19  84  CALM    30.47F
#JOSEPH 3W      N/A         N/A N/A N/A SE3     30.25F
#LOSTINE        N/A         19  18  96  CALM    30.46F
#MT HOWARD 8000 N/A         47  -1  13  CALM    30.55F
#PROMISE 1S     N/A         31  29  92  CALM    30.64F
#WALLOWA SCHOOL N/A         19  18  96  CALM    30.48F



$$



USA.gov is the U.S. government's official web portal to all federal, state and local government web resources and services.